{"data":{"norad_id":59466,"epoch":"2026-05-25T04:36:35.411328Z","epoch_age_seconds":51656,"freshness":"FRESH","line1":"1 59466U 24068M   26145.19207652 -.00000459  00000+0 -71401-5 0  9997","line2":"2 59466  43.0044 322.3793 0001774 266.8545  93.2104 15.27576998120226","mean_motion":15.27576998,"eccentricity":0.0001774,"inclination_deg":43.0044,"raan_deg":322.3793,"arg_perigee_deg":266.8545,"mean_anomaly_deg":93.2104,"bstar":-7.1401e-6,"rev_number":12022,"period_min":94.266933967017,"perigee_km":481.84090911424,"apogee_km":484.27526113044,"semimajor_km":6861.1950851223,"source":"CELESTRAK","updated_at":"2026-05-25T13:38:18.950019Z"}}